MIDAS 3 DEB, 6215

Orbit data source: Space-Track

MIDAS 3 DEB, 6215 is space debris in LEO originally from a launch on Wed, 12 Jul 1961 UTC launched from the Air Force Western Test Range (AFWTR). Debris objects in space refer to the collection of defunct objects orbiting the Earth. Examples of debris include non-operational satellites, rocket bodies, and fragments generated from explosions, collisions, or faulty payload assembly.

Loading next visibility...
Identifier
6215, 1961-018E
Orbit
LEO
Country
Flag of USUS
Related business
Manufacturer
Unknown
Mission
Spacecraft
Bus & Motor
Unknown
Mass
Unknown
Launch date (UTC)
1961-07-12 (65 years ago)
Launch vehicle
Unknown
Launch site
Air Force Western Test Range (AFWTR)
Object type
Payload
Rocket body
Debris
Shape & HBR
Unknown shape, 1.1 m
Radar Cross Section
Medium (>0.1 m² and <1 m²)

Expand to show TLE details & history
Last TLE update: 2 days ago

TLE from 2 days ago
0 MIDAS 3 DEB
1 06215U 61018E   26204.97083936  .00000015  00000-0  49660-2 0  9992
2 06215  91.1184 205.0958 0077336 164.4569 195.8701  8.90943668383198
Epoch: 2026-07-23T23:18Z
TLE epoch observation values (Epoch: 2026-07-23T23:18:00.520Z)
Latitude
Longitude
-86.11055°
Altitude
3,526.094 km
Speed
6.321 km/s
True Right ascension
13h 40m 22s
True Declination
0° 00' 00"
Sunlit
Object was in daylight at epoch
Visualization orbit readout
Latitude
Unknown
Longitude
Unknown
Altitude
Unknown
Speed
Unknown
Apparent Right ascension
Unknown
Apparent Declination
Unknown
Sunlit
N/A
Visualization observer readout
Local Sidereal Time
16:15:23
Azimuth
Unknown
Elevation
Unknown
Doppler factor
Unknown
Orbital elements
Apogee altitude
3,524.453 km
Perigee altitude
3,372.463 km
Semi-major axis
9,826.595 km
Eccentricity
0.00773
Inclination
91.1184°
RAAN
205.0958°
Arg. of periapsis
164.4569°
True anomaly
195.62999°
Mean anomaly
195.8701°
Eccentric anomaly
195.74983°
Mean motion
2.22812 °/min
Orbital period
161.57 mins
BSTAR
0.004966
Loading maneuver chart data...
Computing Atmospheric mass density...
Loading historical data...
Loading historical data...
Loading historical data...
Loading historical data...
Loading historical data...
Loading historical data...
Loading historical data...
Other satellites on launch #18 in the year 1961 (1961-07-12 UTC)

Documentation

Showing up to 5 results
|